Montgomery, AL

4:27 PM CST on February 26, 2017 (GMT -0600)
Montgomery Regional

Weather History for KMGM - March, 2013

Change the Weather History Date:

Friday, March 8, 2013

  Actual Average Record
Temperature  
Mean Temperature 53 °F 56 °F  
Max Temperature 71 °F 68 °F 84 °F (1951)
Min Temperature 35 °F 44 °F 24 °F (1996)
Degree Days  
Heating Degree Days 12 10  
Month to date heating degree days 147 84  
Since 1 July heating degree days 1625 1956  
Cooling Degree Days 0 1  
Month to date cooling degree days 0 3  
Year to date cooling degree days 22 9  
Growing Degree Days 4 (Base 50)    
Moisture  
Dew Point 29 °F    
Average Humidity 47    
Maximum Humidity 79    
Minimum Humidity 15    
Precipitation  
Precipitation 0.00 in 0.20 in 6.06 in (1919)
Month to date precipitation 0.06 1.57  
Year to date precipitation 16.83 11.50  
Snow  
Snow 0.00 in 0.00 in - ()
Month to date snowfall 0.0 0.1  
Since 1 July snowfall 0.0 0.2  
Snow Depth 0.00 in    
Sea Level Pressure  
Sea Level Pressure 30.27 in    
Wind  
Wind Speed 2 mph (NNE)    
Max Wind Speed 10 mph    
Max Gust Speed 17 mph    
Visibility 10 miles    
Events      
T = Trace of Precipitation, MM = Missing Value Source: NWS Daily Summary

Daily Weather History Graph

Daily Weather History Graph

Search for Another Location

Airport or City:

Trip Planner

Search our weather history database for the weather conditions in past years. The results will help you decide how hot, cold, wet, or windy it might be!

Date:

Astronomy

Mar. 08, 2013 Rise Set
Actual Time 6:04 AM CST 5:48 PM CST
Civil Twilight 5:39 AM CST 6:13 PM CST
Nautical Twilight 5:11 AM CST 6:41 PM CST
Astronomical Twilight 4:42 AM CST 7:10 PM CST
Moon 3:38 AM CST (3/8) 2:51 PM CST (3/8)
Length of Visible Light 12h 33m
Length of Day
11h 44m
Waning Crescent, 11% of the Moon is Illuminated
Mar 8
Waning Crescent
Mar 11
New
Mar 19
First Quarter
Mar 27
Full
Apr 2
Last Quarter

Hourly Weather History & Observations

Time (CST) Temp. Windchill Dew Point Humidity Pressure Visibility Wind Dir Wind Speed Gust Speed Precip Events Conditions
12:53 AM 39.0 °F - 32.0 °F 76% 30.27 in 10.0 mi Calm Calm - N/A   Clear
1:53 AM 39.9 °F - 30.9 °F 70% 30.26 in 10.0 mi Calm Calm - N/A   Clear
2:53 AM 37.0 °F - 30.9 °F 79% 30.26 in 10.0 mi Calm Calm - N/A   Clear
3:53 AM 37.9 °F 35.5 °F 30.9 °F 76% 30.27 in 10.0 mi North 3.5 mph - N/A   Clear
4:53 AM 37.9 °F - 30.9 °F 76% 30.28 in 10.0 mi Calm Calm - N/A   Clear
5:53 AM 37.9 °F - 30.9 °F 76% 30.30 in 10.0 mi Calm Calm - N/A   Clear
6:53 AM 39.0 °F - 33.1 °F 79% 30.32 in 10.0 mi Calm Calm - N/A   Clear
7:53 AM 44.1 °F 41.5 °F 33.1 °F 65% 30.34 in 10.0 mi NNE 4.6 mph - N/A   Clear
8:53 AM 48.9 °F - 32.0 °F 52% 30.35 in 10.0 mi Variable 3.5 mph - N/A   Clear
9:53 AM 52.0 °F - 30.9 °F 45% 30.34 in 10.0 mi ENE 4.6 mph - N/A   Clear
10:53 AM 57.0 °F - 30.0 °F 36% 30.32 in 10.0 mi ESE 3.5 mph - N/A   Clear
11:53 AM 63.0 °F - 28.0 °F 27% 30.30 in 10.0 mi NW 4.6 mph - N/A   Clear
12:53 PM 66.0 °F - 21.9 °F 19% 30.26 in 10.0 mi NE 6.9 mph - N/A   Clear
1:53 PM 68.0 °F - 19.0 °F 15% 30.25 in 10.0 mi NNE 5.8 mph - N/A   Clear
2:53 PM 70.0 °F - 21.0 °F 16% 30.23 in 10.0 mi Variable 3.5 mph - N/A   Clear
3:53 PM 70.0 °F - 21.9 °F 16% 30.22 in 10.0 mi Calm Calm - N/A   Clear
4:53 PM 69.1 °F - 24.1 °F 18% 30.21 in 10.0 mi NE 3.5 mph - N/A   Clear
5:53 PM 64.0 °F - 24.1 °F 22% 30.23 in 10.0 mi Calm Calm - N/A   Clear
6:53 PM 57.0 °F - 30.9 °F 37% 30.23 in 10.0 mi Calm Calm - N/A   Clear
7:53 PM 54.0 °F - 32.0 °F 43% 30.23 in 10.0 mi Calm Calm - N/A   Clear
8:53 PM 55.0 °F - 30.0 °F 38% 30.24 in 10.0 mi NW 4.6 mph - N/A   Clear
9:53 PM 55.0 °F - 28.9 °F 37% 30.23 in 10.0 mi Calm Calm - N/A   Clear
10:53 PM 51.1 °F - 34.0 °F 52% 30.23 in 10.0 mi Calm Calm - N/A   Clear
11:53 PM 46.0 °F 44.8 °F 34.0 °F 63% 30.22 in 10.0 mi ENE 3.5 mph - N/A   Clear